User: anonymous   Login
Location: Unspecified
(0.0000°N, 0.0000°E)
Time: 23:34:04
(UTC+00:00)
Language:

Tiangong 1 - Orbit

View from above orbital plane
View from above orbital plane
View from above satellite
View from above satellite

Ground track
Ground track

The orbit data is extracted from the following two-line orbital elements,

1 37820U 11053A   18055.76730324  .00158293  19692-4  19672-3 0  9998
2 37820  42.7514  68.4015 0015819 106.5069 236.2861 16.06788680368162
Epoch (UTC): 24 February 2018 18:24:55
Eccentricity: 0.0015819
inclination: 42.7514°
perigee height: 245 km
apogee height: 266 km
right ascension of ascending node: 68.4015°
argument of perigee: 106.5069°
revolutions per day: 16.06788680
mean anomaly at epoch: 236.2861°
orbit number at epoch: 36816

The dashed part of the orbit path shows where the satellite is in the earth's shadow,  

DLR